This is the latest recevied weather packets stored in our database for station/object K7NDG. If no packets are shown the sender has not sent any weather packets the latest 10 day(s).
| Time | Temp. | Humidity | Pressure | Rain* | Wind** | Luminosity | Snow |
|---|---|---|---|---|---|---|---|
| 1777857930 | 30° C | 33% | 1008.5 hPa | 0 mm | - | 55 W/m² | - |
| 1777857628 | 30° C | 35% | 1008.6 hPa | 0 mm | - | 56 W/m² | - |
| 1777857324 | 30° C | 39% | 1008.6 hPa | 0 mm | - | 64 W/m² | - |
| 1777857020 | 30° C | 39% | 1008.6 hPa | 0 mm | - | 103 W/m² | - |
| 1777856716 | 30° C | 39% | 1008.7 hPa | 0 mm | - | 56 W/m² | - |
| 1777856412 | 30° C | 38% | 1008.7 hPa | 0 mm | - | 57 W/m² | - |
| 1777856109 | 30.56° C | 38% | 1008.7 hPa | 0 mm | - | 53 W/m² | - |
| 1777855807 | 30.56° C | 37% | 1008.6 hPa | 0 mm | - | 64 W/m² | - |
| 1777855504 | 30.56° C | 38% | 1008.7 hPa | 0 mm | - | 104 W/m² | - |
| 1777855201 | 30.56° C | 37% | 1008.8 hPa | 0 mm | - | 70 W/m² | - |
| 1777854897 | 31.11° C | 36% | 1008.8 hPa | 0 mm | - | 70 W/m² | - |
| 1777854594 | 31.11° C | 36% | 1008.7 hPa | 0 mm | - | 71 W/m² | - |
| 1777854291 | 31.11° C | 36% | 1009 hPa | 0 mm | - | 201 W/m² | - |
| 1777853988 | 31.67° C | 35% | 1009.1 hPa | 0 mm | - | 318 W/m² | - |
| 1777853686 | 31.67° C | 34% | 1008.8 hPa | 0 mm | - | 354 W/m² | - |
| 1777853382 | 31.67° C | 34% | 1008.7 hPa | 0 mm | - | 383 W/m² | - |
| 1777853079 | 31.67° C | 34% | 1009 hPa | 0 mm | - | 402 W/m² | - |
| 1777852776 | 31.67° C | 35% | 1009.2 hPa | 0 mm | - | 410 W/m² | - |
| 1777852474 | 31.11° C | 35% | 1009 hPa | 0 mm | - | 312 W/m² | - |
| 1777852171 | 31.11° C | 35% | 1009.1 hPa | 0 mm | - | 247 W/m² | - |
| 1777851869 | 31.11° C | 36% | 1009.2 hPa | 0 mm | - | 154 W/m² | - |
| 1777851567 | 31.11° C | 35% | 1009.2 hPa | 0 mm | - | 221 W/m² | - |
| 1777851263 | 31.11° C | 34% | 1009.3 hPa | 0 mm | - | 412 W/m² | - |
| 1777850960 | 31.11° C | 34% | 1009.2 hPa | 0 mm | - | 546 W/m² | - |
| 1777850656 | 31.11° C | 36% | 1009.3 hPa | 0 mm | - | 558 W/m² | - |
* Rain latest hour (hover to see other rain measurements)
** Current wind speed in m/s (hover to see current wind gust speed)